Location: Key Biscayne
(25.6930°N, 80.1630°W)
Time: 19:41:02
(UTC-05:00)

ISS - Visible Passes

Search period start: 21 January 2018 00:00
Search period end: 31 January 2018 00:00
Orbit: 402 x 407 km, 51.6° (Epoch: 22 January)

Date Brightness Start Highest point End Pass type
(mag) Time Alt. Az. Time Alt. Az. Time Alt. Az.
21 Jan -1.1 05:17:32 14° SSE 05:17:32 14° SSE 05:18:05 10° SSE visible
21 Jan -1.8 18:34:27 10° SSE 18:36:16 14° SE 18:37:39 12° E visible
21 Jan -0.6 20:09:42 10° WSW 20:10:21 14° W 20:10:21 14° W visible
22 Jan -3.6 19:16:58 10° SW 19:20:11 64° NW 19:20:48 50° N visible
23 Jan -3.4 18:24:48 10° SSW 18:27:56 46° SE 18:31:04 10° NE visible
23 Jan -0.6 20:03:49 10° NW 20:03:51 10° NW 20:03:51 10° NW visible
24 Jan -1.6 19:09:32 10° W 19:12:04 21° NW 19:14:08 12° N visible
